OPS 5798 DEB, 903

Orbit data source: Space-Track

OPS 5798 DEB, 903 is space debris in LEO originally from a launch on Tue, 06 Oct 1964 UTC launched from the Air Force Western Test Range (AFWTR). Debris objects in space refer to the collection of defunct objects orbiting the Earth. Examples of debris include non-operational satellites, rocket bodies, and fragments generated from explosions, collisions, or faulty payload assembly.

Loading next visibility...
Identifier
903, 1964-063F
Orbit
LEO
Country
Flag of USUS
Related business
Manufacturer
Unknown
Mission
Spacecraft
Bus & Motor
Unknown
Mass
Unknown
Launch date (UTC)
1964-10-06 (61 years ago)
Launch vehicle
Unknown
Launch site
Air Force Western Test Range (AFWTR)
Object type
Payload
Rocket body
Debris
Shape & HBR
Unknown shape, 0.1 m
Radar Cross Section
Small (<0.1 m²)

Expand to show TLE details & history
Last TLE update: 22 hours ago

TLE from 22 hours ago
0 OPS 5798 DEB
1 00903U 64063F   25315.28154981  .00001390  00000-0  13198-2 0  9992
2 00903  90.2228  65.9626 0023098  56.2385   3.0294 13.80353339 44309
Epoch: 2025-11-11T06:45Z
TLE epoch observation values (Epoch: 2025-11-11T06:45:25.903Z)
Latitude
59.37344°
Longitude
-86.44006°
Altitude
955.861 km
Speed
7.388 km/s
True Right ascension
04h 22m 21s
True Declination
59° 13' 35"
Sunlit
Object was in full shadow at epoch
Visualization orbit readout
Latitude
Unknown
Longitude
Unknown
Altitude
Unknown
Speed
Unknown
Apparent Right ascension
Unknown
Apparent Declination
Unknown
Sunlit
N/A
Visualization observer readout
Local Sidereal Time
00:59:25
Azimuth
Unknown
Elevation
Unknown
Doppler factor
Unknown
Orbital elements
Apogee altitude
976.588 km
Perigee altitude
942.691 km
Semi-major axis
7,337.776 km
Eccentricity
0.00231
Inclination
90.2228°
RAAN
65.9626°
Arg. of periapsis
56.2385°
True anomaly
3.04343°
Mean anomaly
3.0294°
Eccentric anomaly
3.03641°
Mean motion
3.453 °/min
Orbital period
104.26 mins
BSTAR
0.0013198
Loading maneuver chart data...
Computing Atmospheric mass density...
Loading historical data...
Loading historical data...
Loading historical data...
Loading historical data...
Loading historical data...
Loading historical data...
Loading historical data...

Documentation

Showing up to 5 results
|